Погода в Долгинове

Россия / Смоленская область     54°50′28″N   33°03′06″E
темп.,
°C
ветер,
м/с
пор.,
м/с
влажн.,
%
обл.,
%
осадки,
мм/ч
давл.,
гПа
погр.,
м
20 июня, вс
вс2000:00+18вюв11860 0.0 102311
03:00+16ююв23905 0.0 102346
06:00+18ю23910 0.0 1022100
09:00+23ююв23730 0.0 1022497
12:00+26ююв34590 0.0 10221123
15:00+27юв2352100 0.0 10211377
18:00+27в236125 0.0 1019501
21:00+22юв388187 0.0 1020143
21 июня, пн
пн2100:00+18ююв3788100 0.0 1020126
03:00+17юв2291100 0.0 102031
06:00+18юв2688100 0.0 1021156
09:00+22вюв357184 0.0 1020442
12:00+26юв4553100 0.0 1019949
15:00+27юв465022 0.0 1018923
18:00+26вюв3761100 0.0 1017542
21:00+22вюв310825 0.0 1018254
22 июня, вт
вт2200:00+19вюв3109696 0.0 1018219
03:00+18юв3896100 0.0 1018153
06:00+19юв389298 0.0 1019202
09:00+24ююв476942 0.0 1019433
12:00+28юв57505 0.0 1019991
15:00+30юв47425 0.0 10181597
18:00+30юв36545 0.0 1018820
21:00+23юв35800 0.0 101873
23 июня, ср
ср2300:00+20ююв39890 0.0 1019160
03:00+19ююв24965 0.0 102077
06:00+20юв259346 0.0 1020123
09:00+25юв35735 0.0 1021467
12:00+29юв45565 0.0 10201161
15:00+31юв3544100 0.0 10202009
18:00+30вюв345790 0.0 1020977
21:00+24юв311808 0.1 1020253
24 июня, чт
чт2400:00+21ююв368661 0.0 102195
03:00+19ююв349162 0.0 102165
06:00+21юв24905 0.0 1021111
09:00+26юв237257 0.0 1020448
12:00+30ююв33546 0.0 10201041
15:00+32ю23435 0.0 10191581
18:00+31юз12525 0.0 10181051
21:00+25ююв22743 0.0 101817